Wind_Speed
8 8 7 5 6 9 10 11 11 11 10 8 6 7 9 11 10 7 3 2 3 7 10 13 15 16 15 15 14 13 13 13 13 13 13 13 14 16 16 17 17 17 17 16 16 16 16 16 16 16 16 17 18 19 20 20 21 20 16 14 15 17 18 17 17 17 17 17 18 18 18 18 18 19 20 21 21 21 21 22 22 21 21 21 22
5 6 6 5 5 8 10 11 11 11 11 11 9 9 9 10 9 8 6 4 5 8 11 13 16 17 16 15 14 14 13 13 13 13 13 12 13 14 15 16 16 17 17 16 16 16 17 17 17 17 17 17 18 19 20 21 21 19 17 17 16 17 19 18 17 17 17 17 18 18 18 19 19 19 20 21 21 20 20 22 22 22 21 20 21
4 5 6 7 8 9 10 11 12 12 13 13 11 10 10 10 9 8 8 6 7 10 12 15 17 17 17 17 15 14 14 13 12 13 13 12 12 12 14 15 16 16 17 17 17 16 17 17 18 18 18 18 18 19 20 21 21 20 19 19 18 18 20 20 18 18 18 17 18 19 18 19 19 20 20 21 20 20 20 21 22 22 20 18 19
5 5 5 8 9 11 11 11 11 12 13 13 13 12 12 11 10 9 9 8 9 11 14 16 17 18 18 18 17 15 14 14 12 12 12 12 11 12 13 14 15 16 16 17 17 17 17 17 17 18 19 19 19 20 21 22 22 22 21 20 20 20 20 20 20 20 19 19 20 20 19 19 19 19 20 20 21 20 20 20 21 21 20 18 18
6 6 4 5 8 9 10 10 10 10 11 12 12 13 13 12 12 12 11 11 11 13 15 16 17 18 18 18 17 17 16 14 12 11 11 11 11 12 12 14 15 16 16 17 18 18 18 17 17 18 19 20 21 22 23 23 23 23 22 22 22 22 21 21 22 22 20 20 21 20 20 20 19 19 20 20 20 20 21 21 20 20 20 20 19
4 4 4 6 9 8 8 9 9 9 9 9 10 12 13 13 14 14 13 13 13 13 15 16 17 17 17 17 17 18 17 14 12 11 12 11 11 12 14 15 16 17 17 17 17 18 19 18 18 18 19 20 21 22 23 24 24 24 24 24 24 24 24 23 23 22 21 22 22 20 20 21 21 20 20 20 20 20 22 21 21 21 20 20 21
5 5 7 9 13 12 10 10 10 9 9 10 11 12 13 14 14 15 15 15 14 15 16 17 17 17 17 16 16 18 17 14 11 12 13 11 10 12 14 17 18 19 19 18 17 18 19 20 20 19 20 20 21 22 23 23 24 25 25 25 25 25 25 25 24 23 22 22 22 21 21 21 22 22 21 21 20 21 22 21 21 21 21 21 21
10 9 11 11 15 17 14 12 11 11 11 12 13 14 15 16 16 16 16 16 16 15 16 17 17 17 17 17 16 17 18 16 14 13 14 13 10 10 13 17 19 20 20 19 18 18 19 20 21 20 20 20 20 21 22 22 23 24 24 25 25 25 25 25 24 23 22 22 22 22 22 22 24 24 22 21 21 22 23 22 21 22 22 22 21
15 14 15 14 16 19 17 15 13 13 14 15 16 17 19 19 17 16 15 15 15 15 15 16 17 17 18 18 17 18 18 18 17 16 15 14 11 11 13 16 19 21 21 20 19 18 19 21 21 21 21 20 20 20 20 21 21 22 22 23 23 24 24 24 24 23 22 22 22 22 23 24 25 24 23 23 23 23 24 24 22 21 22 23 22
20 19 18 17 17 19 18 16 14 15 16 16 16 16 16 14 12 12 14 15 16 16 16 17 18 19 19 19 19 19 18 18 19 18 17 16 16 18 18 16 17 20 21 20 19 18 18 20 21 22 21 21 20 19 19 19 19 20 20 20 21 21 22 22 23 22 22 22 22 22 24 25 24 24 24 24 24 24 24 25 24 22 22 24 24
24 23 22 20 19 20 19 17 15 16 17 16 15 14 12 12 12 13 15 16 17 18 18 19 20 21 21 20 21 20 18 17 18 18 18 19 20 22 19 15 15 17 18 19 19 18 18 19 20 21 22 21 20 19 18 18 17 18 18 18 19 20 21 21 22 22 22 22 22 23 25 25 24 25 25 25 24 24 25 26 26 25 25 25 25
26 26 25 23 20 20 21 19 17 18 17 15 15 14 13 14 15 16 17 18 19 21 21 22 23 23 23 21 20 20 18 18 19 19 19 19 19 19 16 13 13 14 15 17 17 17 17 18 19 20 21 20 20 18 17 17 16 17 17 17 17 18 19 20 21 21 21 22 22 22 23 25 25 25 26 26 26 26 26 27 27 27 26 26 26
28 28 28 26 23 21 23 22 20 19 18 15 15 15 15 16 17 19 21 22 22 24 24 25 24 24 23 22 21 20 19 19 20 20 20 18 17 15 13 12 13 13 14 15 16 16 16 17 17 18 19 19 18 17 17 16 16 16 16 16 16 17 18 18 19 19 20 20 20 21 22 23 24 24 25 26 26 27 27 28 29 28 28 27 27
30 32 31 28 25 23 24 25 22 20 17 15 15 16 17 18 20 22 23 23 22 23 23 22 21 21 21 22 21 18 17 19 20 21 19 17 15 14 13 13 14 14 13 13 14 15 15 16 16 17 17 16 16 16 16 16 15 15 15 14 15 16 16 16 17 17 17 18 18 19 20 21 22 23 24 25 26 27 27 28 28 28 28 28 28
33 35 32 29 27 24 24 25 23 21 17 16 17 17 18 20 21 23 23 21 20 21 21 20 20 20 21 21 20 19 18 20 20 20 18 15 13 12 13 13 13 13 13 13 14 15 14 14 15 16 15 15 14 14 15 15 15 15 14 14 14 15 15 16 16 16 15 15 16 16 17 18 19 20 21 23 24 25 26 26 26 27 26 26 27
36 35 32 29 28 25 25 26 23 21 19 17 17 17 19 20 21 22 21 18 19 22 22 21 19 17 17 18 18 19 19 20 20 19 18 15 12 11 13 13 13 14 14 14 15 15 15 14 14 15 15 14 14 14 14 15 15 15 15 15 15 15 15 16 16 16 15 15 14 14 15 16 16 17 18 19 20 21 22 22 22 22 22 23 24
36 34 30 27 27 24 24 25 23 21 19 17 17 18 20 21 21 21 19 17 18 19 17 16 13 10 11 14 15 17 17 17 19 19 18 15 11 12 15 15 15 16 16 16 16 15 15 15 14 14 14 14 14 14 14 14 15 15 15 15 16 16 16 16 16 16 16 15 14 14 14 14 15 15 16 17 18 18 18 18 18 18 18 18 19
35 35 31 29 29 26 24 23 21 19 18 17 17 19 20 20 20 19 19 18 16 14 12 11 10 10 11 12 13 15 15 15 17 17 16 14 11 15 17 17 17 18 18 18 17 16 16 16 15 14 14 14 14 15 15 15 15 15 15 16 16 16 17 17 17 17 16 16 15 15 14 14 14 14 15 15 16 17 17 16 16 15 15 15 15
31 33 30 28 32 29 23 20 19 17 17 17 18 19 19 20 18 16 17 17 15 14 13 11 11 11 11 11 12 12 12 13 14 13 13 13 13 15 17 17 18 19 20 19 18 18 18 17 16 15 14 14 14 14 14 14 15 15 15 15 16 16 17 17 17 17 17 17 16 16 15 15 14 14 15 15 15 16 16 16 15 15 14 14 14
30 31 27 26 28 25 19 18 17 16 17 18 18 18 18 19 18 16 16 15 13 13 13 12 11 11 11 11 11 11 10 10 9 9 11 13 15 16 17 18 19 19 20 19 17 18 18 17 17 15 14 14 13 13 13 13 14 14 15 15 15 16 16 17 17 17 17 17 16 16 16 16 16 16 16 16 16 16 16 16 15 15 14 14 14
29 27 24 22 22 20 17 17 16 17 17 17 18 19 19 19 19 18 17 16 14 14 14 13 12 12 13 12 10 10 10 9 9 11 13 14 16 17 18 19 21 20 19 18 18 18 18 17 16 15 14 14 13 13 13 13 13 13 14 15 15 16 16 16 17 17 17 17 17 17 17 16 16 16 17 17 17 18 17 17 16 16 15 15 14
22 21 20 19 18 17 16 16 15 16 16 17 17 18 19 20 20 20 19 18 18 18 17 16 15 15 15 13 10 10 11 11 12 13 14 15 16 17 17 19 22 22 21 19 18 19 19 19 17 15 14 14 13 13 14 13 13 12 12 14 15 16 15 15 16 16 16 17 17 17 17 17 17 17 17 17 18 18 18 19 18 18 17 16 16
19 17 16 15 14 15 16 16 15 15 15 16 18 19 21 22 23 23 22 22 20 20 19 18 17 17 16 14 12 12 13 13 14 14 15 15 17 18 17 18 22 24 22 20 18 19 20 20 18 16 14 13 13 13 13 13 13 13 13 13 14 16 16 16 15 16 16 16 16 17 17 17 17 17 17 17 17 18 19 19 19 19 19 18 18
18 15 14 13 11 12 14 14 14 15 16 18 19 21 22 23 24 24 25 24 23 22 20 18 18 18 18 17 16 15 14 15 15 15 16 17 18 18 17 16 18 20 21 21 21 20 20 20 19 18 16 14 14 14 14 15 16 17 16 15 16 17 18 18 17 17 17 17 17 17 17 17 18 18 18 18 18 18 19 20 20 21 21 21 21
16 15 15 14 13 13 14 15 16 17 18 19 20 21 22 23 24 25 25 26 25 23 21 20 20 21 21 20 19 17 16 16 16 15 16 16 15 15 16 16 17 18 20 23 24 22 20 18 18 19 19 17 16 17 18 20 21 22 20 18 18 18 19 19 19 18 18 18 18 18 18 19 19 20 20 20 20 20 20 20 20 21 22 22 23
18 17 17 17 17 17 17 17 18 18 19 19 20 21 22 23 24 25 25 25 25 25 24 25 26 26 25 24 23 22 21 20 19 16 14 14 14 15 18 20 20 19 19 21 22 21 19 17 16 17 19 19 19 19 20 21 21 22 21 21 20 19 19 20 21 20 19 18 19 19 19 20 21 21 22 22 22 22 22 22 22 22 23 23 23
21 20 21 21 21 21 20 20 21 21 22 23 23 24 24 25 25 25 26 27 27 28 29 30 31 30 29 27 27 27 26 26 24 20 18 19 20 21 22 22 21 19 19 21 23 23 21 20 19 19 20 20 19 18 18 18 20 20 21 22 22 21 20 21 22 22 21 21 21 21 22 22 22 23 24 24 24 24 25 25 25 24 25 25 25
21 21 21 22 23 23 22 23 24 25 25 27 27 27 28 28 28 29 30 31 31 32 33 33 34 33 32 30 30 30 30 31 30 26 23 23 23 23 23 22 21 21 21 22 23 24 23 22 24 24 24 24 24 23 22 23 24 24 24 25 25 24 23 23 23 23 23 24 24 25 26 25 25 25 25 26 27 27 28 28 28 27 27 27 27
24 24 24 24 24 25 26 27 28 30 31 31 32 32 32 32 32 33 34 34 35 35 36 36 36 36 35 34 34 33 33 33 32 31 28 26 24 23 23 23 23 25 25 23 23 24 24 25 26 27 28 29 28 27 28 30 31 30 29 29 28 26 26 26 26 26 26 27 27 28 29 29 29 29 28 27 28 28 30 30 31 31 31 30 30
30 30 29 29 29 30 32 33 34 34 35 35 35 35 36 36 36 36 37 37 38 38 38 39 39 39 38 38 38 37 35 34 33 33 31 29 27 25 24 25 26 28 28 27 27 28 30 32 32 31 31 30 29 30 32 34 35 34 32 31 30 29 29 29 29 29 29 29 30 31 32 32 33 33 32 31 30 30 31 31 32 34 34 34 34
34 34 34 35 35 35 36 37 37 37 38 38 38 39 39 40 40 40 40 40 40 41 41 41 41 42 42 41 41 40 38 35 34 34 33 31 30 28 28 29 30 30 30 30 30 32 33 35 35 35 34 33 33 33 34 35 35 34 33 31 30 30 31 31 32 32 32 32 32 34 35 35 36 36 36 35 35 34 34 34 35 36 37 38 37
38 38 38 38 39 39 40 40 41 41 41 41 41 41 41 41 42 42 42 42 43 43 44 44 44 44 44 43 42 41 40 37 35 35 35 34 33 33 34 34 34 34 33 33 33 34 34 35 35 35 34 34 33 33 33 33 32 31 30 30 29 30 30 31 32 34 34 35 35 36 37 38 39 39 39 39 38 38 38 38 38 38 39 40 41
42 42 42 42 42 42 43 43 44 44 45 45 44 43 42 41 40 41 41 42 43 44 45 45 45 44 44 43 42 41 40 38 37 37 37 38 39 39 40 39 39 37 36 35 35 35 35 34 34 33 33 33 34 34 34 32 30 29 29 29 29 30 31 32 33 34 35 37 38 39 40 40 41 41 42 42 42 42 43 43 43 43 43 43 43
45 45 45 46 46 46 46 46 46 47 46 44 43 42 41 41 41 41 41 41 42 44 45 45 45 45 44 43 42 41 39 38 39 40 41 41 42 42 41 41 40 39 37 36 35 35 35 34 33 33 33 34 35 35 34 33 32 31 31 32 32 32 33 34 35 36 37 38 39 41 42 42 43 43 44 45 45 45 46 47 47 47 47 47 46
48 48 49 49 49 49 49 48 48 49 48 46 45 44 44 44 43 41 40 39 40 43 44 45 45 43 42 41 41 41 40 40 42 43 43 42 42 42 41 41 40 39 37 36 35 34 34 34 34 35 35 36 36 36 35 35 35 35 35 36 36 37 37 37 38 38 38 39 41 42 43 44 44 45 46 47 47 48 48 48 49 49 50 50 50
48 48 48 46 44 42 43 42 41 42 43 45 47 48 48 47 45 43 41 39 39 38 38 39 40 39 39 39 40 40 40 40 41 42 42 42 42 41 41 40 39 39 38 38 37 37 37 37 38 38 38 37 37 37 37 37 37 37 38 39 40 40 40 40 40 40 40 40 41 42 43 44 45 46 47 48 49 49 50 50 51 51 51 51 51
49 49 49 48 45 44 44 43 42 42 43 45 46 47 48 49 49 48 46 44 42 39 37 37 38 37 38 39 39 39 39 39 39 40 41 42 42 42 42 42 42 42 41 41 41 41 41 41 41 40 40 39 39 39 40 40 40 40 41 42 43 43 43 43 42 42 41 41 40 41 43 44 45 46 47 48 49 50 50 51 52 52 53 53 53
54 55 55 55 55 54 54 54 54 54 55 55 55 54 54 55 54 52 50 48 46 44 43 42 41 40 41 41 42 42 42 42 42 43 43 44 45 46 46 46 45 44 44 44 44 43 43 43 43 42 42 41 41 41 42 42 43 44 45 46 46 45 45 44 44 44 43 43 42 41 42 43 44 45 47 48 48 49 50 51 52 52 53 54 55
56 57 58 59 60 60 60 60 60 60 61 61 60 60 59 58 57 56 55 54 53 53 52 51 49 47 45 44 45 46 47 47 48 49 49 49 50 50 50 49 47 46 45 44 44 45 44 44 43 42 42 42 42 42 43 44 45 47 48 48 48 47 46 45 45 44 44 44 44 43 42 42 43 44 45 46 47 48 49 50 51 51 52 53 54
57 58 59 60 60 61 61 62 62 62 62 62 61 61 60 60 59 58 57 57 57 58 57 57 55 52 50 49 48 46 46 45 45 46 47 48 48 48 48 47 46 45 44 44 44 45 45 44 43 42 42 42 43 44 45 47 48 49 50 49 48 47 46 46 45 45 45 45 45 44 44 43 43 43 44 45 46 46 47 47 48 49 50 51 52
58 58 59 60 60 61 62 62 62 62 62 62 62 62 61 61 60 59 58 58 58 58 57 57 56 55 54 54 52 49 46 44 42 40 40 40 40 40 40 41 42 42 43 44 44 43 44 44 44 44 44 45 47 49 50 50 51 51 51 50 48 47 46 45 45 45 45 45 45 45 44 44 44 44 44 44 45 45 45 45 46 47 48 48 49
57 58 59 59 59 59 60 60 61 61 61 61 61 60 60 60 59 58 58 58 57 57 57 56 56 55 55 56 55 52 49 48 46 43 42 41 40 38 37 39 41 42 45 48 48 47 47 48 49 50 51 52 54 54 54 54 53 52 51 49 48 47 46 45 45 45 45 44 44 44 44 44 44 44 45 44 45 45 44 45 45 46 47 47 48
56 58 59 60 60 60 61 61 61 61 61 61 61 60 60 60 60 59 59 58 58 58 58 57 56 56 56 56 57 56 54 52 50 49 47 47 46 45 44 44 45 46 48 50 51 51 52 53 55 58 59 60 59 57 55 53 52 50 49 48 47 47 46 45 45 44 44 44 43 44 44 44 44 44 45 45 45 44 44 44 45 46 47 48 48
56 58 60 61 62 62 62 63 63 63 63 63 63 63 62 62 61 62 62 61 61 61 60 59 58 57 56 56 56 57 58 58 57 56 55 53 52 52 51 51 52 53 53 53 54 56 58 60 63 64 64 61 58 55 53 51 49 48 47 47 47 47 46 46 45 44 44 44 43 43 43 44 44 44 44 45 44 44 44 44 45 45 46 47 48
59 60 61 62 62 63 63 63 63 63 64 64 64 64 64 63 63 63 63 63 62 62 62 62 61 60 59 58 57 57 58 59 61 62 62 61 61 60 60 60 60 61 61 61 62 63 65 65 65 64 61 58 56 54 51 49 48 47 47 47 46 46 46 46 45 45 44 44 43 44 44 43 44 44 44 44 43 43 43 43 44 44 45 46 47
61 62 63 64 64 64 65 65 65 66 66 67 67 67 67 66 66 67 67 66 66 65 65 64 64 63 63 62 62 61 61 61 61 62 64 65 66 67 67 67 67 66 65 64 64 64 64 63 61 59 57 56 55 53 50 48 48 47 47 46 46 46 46 46 45 45 44 44 44 44 43 43 43 43 42 42 42 42 42 43 43 44 45 46 46
60 60 61 62 63 64 64 65 65 66 67 68 69 69 69 69 69 70 70 71 71 71 70 69 69 68 67 67 66 65 64 63 62 62 63 64 65 66 67 67 66 65 64 63 63 63 62 61 59 57 55 54 53 51 49 48 48 47 46 45 45 46 46 46 45 45 45 44 44 43 43 42 42 41 41 41 41 41 42 42 43 44 44 45 45
57 57 58 59 59 60 61 61 62 62 63 65 65 66 67 68 68 69 69 70 71 71 72 71 71 70 70 69 68 67 67 66 65 64 63 63 63 63 64 64 64 63 63 63 62 62 61 60 58 55 53 52 51 49 48 48 47 45 45 45 44 44 44 45 45 45 44 43 43 42 41 41 40 39 39 39 39 40 41 41 42 42 43 44 45
55 56 57 57 58 58 59 59 59 60 61 62 63 63 64 65 65 66 67 67 67 67 68 68 68 67 67 67 67 66 66 66 65 64 64 63 63 62 62 61 61 60 60 61 61 61 61 60 58 55 53 51 50 49 49 48 47 46 45 44 42 41 40 40 41 43 43 42 41 40 39 39 38 38 38 38 39 39 39 40 41 41 42 43 44
55 56 56 57 57 58 58 58 59 60 61 62 62 63 64 65 66 67 67 67 66 65 65 65 66 65 64 63 63 63 63 63 63 62 62 62 61 60 60 59 58 57 57 58 59 58 58 57 55 53 51 50 49 49 48 47 46 45 43 42 40 40 39 39 39 40 40 40 39 39 38 38 38 38 38 38 38 38 39 39 40 40 41 42 42
53 53 52 52 52 53 53 54 55 56 57 58 59 61 62 64 65 67 67 68 67 66 65 64 64 64 64 63 62 62 61 61 60 60 60 59 58 56 56 55 54 53 53 54 54 54 54 52 51 50 48 47 46 46 46 45 44 43 41 40 39 39 39 39 39 39 39 39 38 38 38 38 37 37 37 37 37 38 38 39 39 39 38 37 36
Wind_Direction
277 266 270 277 256 241 240 244 250 260 267 271 270 257 237 240 258 273 274 247 220 235 247 252 258 262 264 266 267 269 271 277 284 288 288 284 280 279 277 275 273 273 271 269 266 264 263 263 263 260 253 248 247 245 246 249 247 246 254 252 242 246 256 261 261 261 261 258 256 253 250 249 249 251 254 256 257 258 260 261 262 263 261 258 258
266 253 261 277 266 248 238 237 244 253 262 264 259 253 247 250 263 273 277 263 231 238 245 250 257 262 266 267 269 274 277 281 286 291 293 290 285 281 279 276 273 271 269 267 264 262 261 260 259 258 254 249 246 245 246 250 253 252 254 254 249 248 255 261 260 259 261 259 258 256 253 253 253 254 256 259 261 262 264 264 262 262 264 260 257
279 273 278 282 272 260 249 241 243 249 255 259 259 258 257 259 265 269 268 255 241 242 245 251 258 263 268 271 276 281 284 285 285 288 291 293 292 288 285 281 275 271 269 267 264 261 260 259 259 257 255 252 248 247 247 250 254 254 253 254 252 250 255 261 261 260 261 261 261 259 256 255 255 256 258 259 260 261 264 264 259 259 263 260 255
313 321 304 283 272 262 257 251 248 250 254 258 261 264 266 266 266 266 262 253 245 242 243 249 256 262 268 274 280 282 284 285 282 281 284 292 298 296 293 288 281 275 270 267 265 262 260 258 258 258 257 254 251 249 249 250 252 253 254 254 255 255 256 260 262 261 262 263 263 262 259 256 255 257 259 259 258 259 261 261 258 255 257 256 253
328 340 322 294 287 269 257 256 257 257 258 259 261 261 262 263 264 262 256 251 246 245 248 253 258 263 269 275 280 281 281 282 283 279 280 289 300 301 298 294 289 283 275 269 265 262 260 258 257 257 257 255 253 251 250 250 251 253 254 255 258 259 259 260 263 264 265 265 262 261 260 259 259 259 259 259 258 258 257 256 255 255 254 255 255
315 333 324 324 316 290 255 251 256 258 256 255 257 257 256 257 258 255 251 247 247 248 253 258 262 265 271 278 283 283 281 280 282 281 280 286 294 299 300 297 293 288 282 274 268 264 260 257 255 254 254 254 254 253 252 252 252 254 256 257 259 261 262 262 263 264 265 265 264 262 261 261 262 261 261 261 260 259 258 255 255 256 257 257 257
280 292 299 314 315 298 267 247 243 243 241 240 243 245 247 248 248 247 245 243 243 247 254 260 264 269 276 282 286 285 279 272 272 276 278 280 286 294 299 298 294 288 282 276 270 265 260 256 253 251 251 251 253 254 254 255 255 256 257 259 260 261 262 262 262 261 261 262 265 265 263 263 262 259 259 261 261 260 259 256 255 256 259 260 259
275 274 282 298 307 297 274 252 242 238 234 232 233 236 237 236 235 236 240 244 246 250 256 262 267 273 278 282 285 286 278 266 262 268 273 274 278 290 299 299 294 288 280 273 267 263 259 255 251 249 248 249 250 252 254 255 256 258 258 259 261 261 262 262 261 261 260 260 262 264 265 264 262 259 257 259 259 258 258 257 255 256 260 262 260
276 274 277 287 298 293 274 254 244 234 228 229 232 237 236 231 231 237 243 252 257 262 265 267 270 274 276 278 280 284 280 268 261 262 267 266 269 285 297 298 294 287 279 271 264 259 256 252 248 246 245 245 246 247 250 253 254 256 257 259 260 261 262 263 262 262 261 261 262 263 263 262 261 261 260 259 258 257 257 258 257 256 258 260 259
278 276 276 281 289 287 271 256 245 233 231 235 241 250 249 240 243 252 255 262 268 270 271 271 272 273 273 275 277 281 286 278 264 259 261 263 273 287 293 294 293 286 278 272 265 259 255 251 247 243 242 241 241 242 244 247 250 252 255 257 259 260 262 263 263 263 263 262 263 263 264 264 265 266 265 261 258 257 257 258 258 258 257 258 256
276 274 274 276 280 278 268 259 249 241 242 245 248 258 263 257 260 263 261 263 265 266 267 267 267 268 269 273 276 280 285 281 268 262 264 271 281 287 288 289 293 287 278 272 266 262 258 254 249 245 241 240 239 239 241 244 248 250 253 257 259 261 262 262 263 263 263 263 263 263 266 268 269 269 267 265 265 263 261 259 259 259 257 256 255
269 269 270 271 273 269 261 257 250 244 247 248 247 254 261 262 264 265 261 259 259 258 258 259 260 263 265 268 273 279 282 279 270 267 270 279 287 287 281 282 291 290 281 271 263 260 259 256 253 248 244 242 240 240 241 243 246 249 252 255 258 261 263 264 264 265 264 264 263 263 265 268 269 269 269 269 270 269 266 263 262 261 259 257 255
262 263 264 263 265 260 252 250 247 245 245 246 248 254 261 264 266 264 260 258 258 257 258 260 262 265 268 269 273 277 280 275 269 270 274 281 287 283 271 272 286 293 287 273 262 257 257 257 254 251 247 244 243 242 242 243 245 247 250 253 256 258 261 263 265 267 267 267 267 266 265 266 268 268 268 268 268 267 266 264 264 263 263 262 260
263 264 260 252 251 252 246 243 243 243 244 247 253 260 262 264 267 266 264 264 266 267 268 270 271 270 269 268 269 272 278 277 272 273 277 281 282 274 265 268 282 293 292 280 267 259 257 257 254 251 248 245 244 245 245 245 246 246 248 251 254 257 259 262 264 267 269 270 270 270 269 268 268 267 267 267 267 267 266 265 265 265 264 264 264
266 267 264 251 240 239 240 239 239 240 244 249 254 259 261 265 271 271 269 270 272 273 272 274 277 270 262 261 260 263 273 277 273 272 276 280 275 265 262 270 281 290 292 284 272 263 260 259 257 254 249 246 246 247 249 250 250 250 249 250 251 253 255 258 260 263 265 268 269 270 270 270 270 270 270 270 270 270 270 269 268 268 267 266 266
261 264 266 250 229 227 233 234 235 238 244 250 251 255 261 268 277 277 273 269 270 272 272 276 279 270 261 261 259 263 272 271 264 266 273 273 267 263 267 275 283 289 291 286 275 266 262 260 259 257 253 251 250 250 252 253 254 256 256 256 256 256 256 256 256 258 259 262 265 266 268 269 270 270 270 271 272 272 273 273 273 273 271 269 268
255 254 254 238 221 228 235 231 233 239 244 248 249 255 263 269 274 278 279 275 274 279 281 280 283 280 272 270 269 272 273 264 258 263 266 261 260 270 271 274 281 286 288 283 275 267 263 260 259 258 256 254 253 252 254 256 258 260 261 262 263 263 264 263 262 261 260 261 262 264 267 269 271 272 272 272 272 273 274 276 277 277 275 273 270
255 245 240 233 231 241 242 234 236 239 241 246 250 256 263 265 269 279 286 281 277 284 286 280 283 286 278 278 284 282 271 262 260 261 256 250 259 270 267 270 280 285 285 279 270 265 262 260 260 260 259 257 254 253 254 256 258 261 264 267 268 269 269 269 269 269 267 266 266 266 267 270 273 275 276 277 276 276 275 276 277 276 274 273 271
252 239 234 237 242 247 244 238 238 238 242 249 252 256 258 259 266 283 290 284 278 282 285 283 283 284 281 283 291 290 278 269 262 257 256 258 264 267 268 275 279 282 284 276 267 265 264 262 261 260 259 258 255 253 254 256 258 260 262 265 269 271 272 273 273 273 273 272 272 271 271 271 273 276 278 278 279 279 279 279 278 277 275 272 269
247 239 241 246 246 248 245 240 241 242 247 251 250 249 249 252 262 278 285 283 281 281 282 282 280 281 284 286 291 293 287 274 259 265 279 278 272 267 268 273 274 277 281 276 269 271 270 266 262 257 252 249 247 247 249 252 256 259 261 262 265 268 270 273 274 274 275 276 276 276 276 275 275 276 278 280 281 281 280 280 279 278 276 274 271
249 249 256 257 252 251 246 242 243 242 244 245 244 244 245 249 260 274 281 282 281 279 276 277 276 277 281 286 290 288 284 276 270 282 288 283 276 270 266 269 273 275 275 274 277 281 283 281 273 261 252 247 243 243 244 247 254 259 264 265 265 266 267 269 271 273 275 277 278 279 279 279 278 278 278 279 281 282 282 281 280 278 276 274 272
257 260 264 264 260 253 244 239 238 236 237 240 243 247 250 252 258 269 278 283 282 280 278 278 278 278 279 283 282 275 275 273 270 278 282 280 277 272 267 267 272 273 271 271 277 283 289 290 281 270 264 260 256 254 254 255 258 263 267 269 269 269 269 267 267 269 272 275 278 280 280 281 281 281 280 278 279 280 280 280 279 278 276 274 272
260 263 264 265 262 249 237 230 229 232 239 248 255 260 261 261 262 266 274 281 284 284 283 282 281 279 278 278 276 271 270 270 271 278 281 278 276 275 273 268 267 269 273 274 275 277 281 281 276 269 266 263 260 259 259 258 261 265 267 268 270 271 270 267 265 265 267 269 272 275 278 279 280 281 281 281 281 281 281 280 279 278 276 273 271
260 265 267 267 262 250 243 242 243 247 253 259 265 268 268 268 267 267 272 278 282 283 284 284 284 284 281 278 276 274 274 276 281 286 282 273 270 272 273 270 264 265 273 277 275 273 274 274 271 268 265 261 258 259 260 263 269 271 270 270 271 271 269 267 266 267 268 268 268 269 271 274 276 277 277 278 279 280 281 280 279 278 276 273 270
260 266 265 261 260 259 259 260 259 259 262 265 267 269 271 271 271 271 273 276 279 281 282 283 286 288 287 284 279 278 281 283 286 290 282 266 260 264 269 269 265 263 268 274 275 271 270 271 269 266 266 263 261 263 266 268 270 270 270 272 274 273 269 266 266 268 270 271 271 269 268 270 272 274 275 275 276 276 276 276 276 276 275 274 272
266 266 261 257 259 262 262 261 261 261 263 265 267 268 269 270 272 273 274 275 276 278 281 284 286 287 289 288 285 284 287 289 289 285 268 250 252 267 272 269 267 264 264 270 274 271 268 272 269 263 261 260 262 268 271 270 270 270 270 271 273 273 270 267 265 265 266 270 272 272 271 270 269 269 271 272 274 275 274 273 273 273 273 273 272
269 267 261 259 260 261 262 262 262 262 264 265 267 268 268 268 268 270 271 272 275 278 280 282 285 286 286 286 286 285 288 291 292 282 260 252 261 268 270 268 264 261 263 268 271 270 269 271 267 259 255 257 262 266 265 266 270 272 270 268 269 271 271 267 263 261 262 265 266 268 270 270 270 268 266 266 267 269 270 271 270 270 270 270 270
264 263 262 260 260 260 263 265 265 265 267 268 268 266 265 265 265 266 268 270 273 275 277 280 282 283 283 283 283 283 284 287 289 284 268 260 263 264 264 264 258 257 264 270 270 269 268 265 261 258 259 262 263 261 259 264 272 274 271 268 267 269 270 267 263 260 263 267 267 267 267 268 269 268 266 264 264 264 266 266 266 266 267 267 267
263 264 264 263 260 259 261 264 264 265 267 269 268 267 266 266 267 268 269 270 272 273 275 277 279 279 280 281 281 280 280 281 283 281 272 263 261 260 259 259 257 260 267 269 266 264 262 259 260 264 266 267 266 262 263 269 274 275 272 271 269 269 268 266 263 261 264 268 270 270 268 268 269 268 266 264 262 262 263 263 263 263 263 263 264
265 266 266 264 262 261 261 262 263 264 266 268 269 271 272 273 273 273 274 274 275 275 275 276 277 277 278 279 279 278 277 276 275 274 271 265 262 259 257 258 260 263 266 267 264 261 259 259 264 268 268 267 266 266 270 274 275 272 270 270 270 268 267 266 265 264 264 265 266 267 267 268 269 269 267 264 262 260 260 260 261 260 260 261 261
265 266 266 265 265 264 264 265 266 267 269 270 271 272 274 275 276 276 276 276 277 277 277 277 276 277 276 276 276 275 274 272 269 268 267 264 261 259 258 260 262 265 267 268 266 263 260 260 263 265 266 266 267 269 272 273 272 270 270 270 271 270 269 268 268 267 267 266 265 266 267 268 269 269 268 267 265 264 262 261 260 259 258 258 258
266 266 266 266 267 267 268 269 270 271 272 273 274 274 275 275 275 275 275 275 275 275 275 275 275 275 275 275 274 273 272 269 266 264 264 263 262 262 264 265 268 270 270 268 264 263 261 261 262 264 266 268 269 270 270 270 270 269 270 271 273 274 274 273 272 271 270 268 267 266 267 268 269 269 269 268 268 267 266 265 263 262 261 261 260
271 270 269 269 269 270 270 271 272 272 272 272 271 271 271 272 272 273 273 272 272 272 272 273 272 272 272 272 271 271 270 266 263 262 262 263 265 267 269 271 272 272 270 266 262 260 260 260 262 264 266 269 271 271 270 269 269 269 270 273 274 275 274 274 273 273 272 271 270 268 268 268 268 268 269 269 268 267 266 266 265 264 264 263 262
272 272 272 272 272 272 271 271 271 271 270 269 267 266 267 268 268 269 269 269 270 270 270 270 270 270 270 270 270 269 267 263 261 262 264 265 266 268 270 272 272 271 268 264 260 259 259 260 262 264 266 268 268 268 268 267 267 268 271 273 274 274 273 272 273 273 274 273 272 271 270 269 268 268 268 268 268 267 267 266 266 266 266 265 264
270 272 273 273 273 273 272 271 271 270 269 268 266 265 265 266 266 266 266 267 270 271 271 271 271 270 269 268 268 268 266 263 262 264 266 265 266 267 268 268 268 267 265 263 261 261 261 263 263 264 265 266 265 265 265 265 266 269 272 274 276 276 275 274 273 274 275 274 272 271 270 270 269 269 269 269 269 269 269 268 267 267 267 267 267
268 268 269 268 268 268 268 267 267 266 266 265 265 264 264 264 264 263 263 265 266 267 268 269 269 268 268 267 266 266 266 265 265 265 264 264 264 265 265 265 265 265 265 265 264 264 264 265 265 265 265 266 266 265 265 266 268 270 274 277 279 279 278 277 276 276 276 275 274 271 270 269 269 269 269 269 269 270 270 270 270 269 269 269 270
264 263 263 262 261 259 259 259 260 260 261 263 263 263 264 265 265 264 263 263 261 259 260 261 262 264 265 265 263 262 263 264 264 262 261 261 261 262 263 264 265 265 266 266 266 267 268 268 269 269 270 271 271 270 269 269 270 272 276 279 281 281 280 279 279 279 278 277 275 272 270 269 268 268 268 268 269 269 269 270 271 271 271 272 272
264 263 263 263 262 261 261 261 261 261 262 263 263 264 265 266 265 264 264 263 259 257 259 261 262 263 263 262 260 259 259 260 260 258 258 259 261 264 266 268 269 269 270 270 269 270 271 271 271 272 272 273 273 272 272 272 272 274 278 282 283 283 281 281 280 280 280 279 277 274 272 270 269 268 268 269 269 269 269 269 270 270 271 272 272
264 264 265 265 265 265 265 265 265 265 265 265 266 266 266 266 266 265 265 263 260 259 260 261 263 263 262 261 261 261 261 262 262 261 262 263 265 267 268 269 270 271 270 269 268 267 268 269 271 271 271 271 271 271 272 272 274 277 281 283 284 283 282 281 281 281 280 280 278 277 275 273 270 269 269 268 269 269 269 270 271 271 271 271 271
262 263 264 264 265 265 266 266 267 267 267 268 268 269 268 268 268 267 265 264 262 261 260 259 260 260 259 258 259 260 261 262 263 264 265 266 267 269 269 269 269 269 268 266 264 263 264 266 267 266 267 267 269 271 272 274 276 279 282 283 283 282 281 281 280 280 280 279 278 278 276 275 273 272 271 270 270 270 270 271 271 271 272 272 273
261 262 262 263 264 265 265 266 266 267 267 268 268 269 269 269 269 268 267 265 264 263 261 259 258 257 256 255 256 256 256 255 255 257 259 260 261 264 266 266 266 264 262 262 261 260 260 261 261 261 263 266 269 272 274 275 277 279 281 282 281 281 281 280 280 279 279 278 278 277 276 276 275 275 274 274 273 273 273 273 273 273 273 274 274
262 263 263 263 263 264 264 264 265 265 266 266 266 266 267 267 267 267 267 266 266 265 263 261 259 257 255 253 253 253 252 250 249 248 247 248 250 252 252 254 256 256 257 260 262 261 261 262 262 264 266 270 273 275 275 275 277 278 279 279 279 279 279 279 278 278 278 278 277 277 277 276 276 276 275 275 275 275 276 276 276 276 277 277 277
264 264 264 264 264 265 265 266 266 266 266 265 264 263 263 263 264 264 264 264 264 265 264 264 263 260 258 255 252 251 250 248 247 246 244 242 244 246 246 248 252 254 257 261 263 263 264 266 268 270 273 275 276 276 276 276 276 277 277 276 276 276 276 277 277 277 278 278 278 278 277 277 276 276 276 276 276 276 276 277 277 278 279 279 280
267 267 267 267 267 267 267 268 268 268 268 267 266 265 264 263 263 263 263 263 263 263 264 264 263 263 261 259 256 254 252 250 249 248 247 245 244 245 246 248 251 254 256 259 261 263 265 267 270 273 275 276 277 277 277 277 276 276 275 274 274 275 275 276 276 277 277 278 278 278 277 277 276 276 276 276 277 277 278 278 279 279 279 280 280
270 269 269 268 268 268 268 269 269 269 269 269 268 268 267 266 265 264 263 263 262 263 263 262 262 262 261 260 259 258 257 256 254 252 252 251 250 251 252 254 256 258 259 261 263 265 267 268 271 273 274 275 276 276 276 276 276 275 274 274 274 274 274 275 276 276 276 277 277 277 277 277 276 276 276 277 278 279 279 280 280 279 279 278 278
272 271 270 269 268 268 268 268 269 269 269 269 269 268 268 268 268 267 267 266 264 263 263 262 262 261 260 260 260 260 260 260 260 258 257 256 256 257 258 259 260 261 262 263 264 265 266 267 269 270 271 273 274 274 275 275 274 274 273 273 273 273 274 275 275 275 276 276 276 276 276 276 277 277 278 279 279 280 280 280 280 280 280 280 280
273 272 271 271 270 269 269 268 268 268 268 268 268 268 267 267 267 267 268 268 267 266 265 264 263 263 262 261 261 261 261 261 261 261 261 261 260 261 261 262 262 262 262 263 263 264 265 266 267 268 269 271 272 273 273 273 272 272 272 272 272 273 273 274 274 275 275 275 276 276 276 276 277 277 278 279 279 280 280 280 281 281 281 281 281
275 274 273 273 272 271 271 270 270 269 269 268 268 268 268 267 266 266 265 265 266 266 266 265 264 264 263 263 262 262 262 261 260 260 260 260 261 261 262 263 263 264 264 264 264 264 265 266 267 268 269 270 270 271 271 271 272 271 271 271 272 273 274 273 272 273 274 274 275 275 275 276 277 277 278 278 278 279 280 280 281 282 282 282 283
275 275 274 273 273 272 272 271 271 270 269 269 269 268 268 268 267 266 265 264 264 264 264 265 264 264 263 263 262 262 262 261 261 260 259 258 258 259 259 260 261 262 263 264 264 265 265 266 267 268 268 269 269 270 270 271 271 271 270 271 271 271 272 271 270 271 272 273 274 274 275 276 276 277 277 278 279 280 281 283 283 284 284 284 285
276 276 276 275 275 274 273 272 270 269 268 267 267 266 266 266 265 265 264 264 263 262 263 263 263 263 263 262 261 261 261 260 260 259 259 259 258 258 257 257 257 258 259 261 262 264 265 266 267 267 268 268 268 269 269 270 269 269 269 269 267 267 267 269 270 270 271 272 273 274 275 276 277 278 279 280 281 283 284 285 286 286 286 287 286
279 278 278 277 276 275 273 272 271 269 268 267 266 265 264 264 263 263 262 262 261 261 260 260 261 262 262 261 260 260 259 259 259 258 258 258 258 258 258 257 256 255 255 256 258 261 263 264 265 266 266 265 266 266 267 267 267 268 267 266 265 265 266 267 269 270 271 272 274 275 276 277 277 279 280 282 284 285 287 287 288 288 287 287 286
Height
5769 5769 5769 5769 5769 5770 5771 5772 5773 5773 5773 5774 5774 5775 5776 5777 5777 5777 5776 5776 5777 5778 5779 5780 5780 5780 5781 5781 5782 5782 5782 5781 5781 5781 5781 5781 5781 5780 5780 5780 5779 5779 5778 5778 5778 5777 5777 5778 5778 5778 5779 5780 5780 5780 5779 5778 5779 5781 5782 5783 5783 5784 5782 5783 5784 5784 5784 5785 5785 5786 5787 5788 5788 5788 5788 5789 5789 5790 5790 5791 5791 5791 5792 5792 5792
5768 5768 5768 5768 5768 5769 5769 5769 5770 5772 5772 5773 5774 5775 5775 5775 5775 5775 5775 5775 5776 5777 5778 5779 5779 5779 5779 5780 5780 5780 5780 5779 5779 5779 5779 5779 5779 5779 5778 5778 5777 5777 5777 5777 5776 5776 5776 5776 5776 5777 5777 5778 5778 5778 5778 5776 5777 5779 5781 5781 5782 5782 5781 5781 5782 5783 5783 5783 5784 5784 5785 5786 5787 5787 5787 5787 5787 5788 5789 5789 5789 5789 5789 5790 5790
5767 5767 5767 5767 5767 5767 5768 5768 5769 5770 5771 5771 5772 5773 5774 5774 5774 5774 5774 5774 5775 5776 5777 5778 5778 5777 5777 5777 5777 5777 5777 5777 5777 5777 5777 5777 5777 5777 5776 5776 5776 5776 5775 5775 5775 5775 5775 5775 5775 5775 5776 5776 5777 5777 5777 5776 5776 5778 5779 5780 5781 5781 5779 5779 5780 5781 5781 5782 5782 5782 5783 5784 5785 5785 5785 5785 5786 5786 5786 5787 5787 5787 5787 5787 5788
5766 5766 5766 5766 5765 5766 5766 5767 5768 5768 5769 5769 5770 5771 5771 5772 5772 5773 5773 5774 5774 5775 5775 5776 5776 5776 5775 5774 5774 5774 5775 5775 5775 5775 5775 5775 5775 5775 5774 5774 5774 5774 5774 5773 5773 5773 5773 5773 5773 5774 5774 5774 5775 5776 5776 5775 5776 5776 5778 5778 5779 5779 5779 5778 5778 5779 5779 5780 5780 5780 5781 5782 5782 5783 5783 5784 5784 5784 5784 5784 5784 5785 5785 5785 5786
5764 5765 5765 5764 5764 5764 5765 5766 5766 5767 5768 5768 5769 5769 5770 5771 5771 5772 5772 5773 5773 5773 5774 5774 5774 5774 5773 5773 5772 5772 5773 5773 5773 5774 5773 5773 5773 5773 5773 5772 5772 5772 5772 5771 5772 5772 5772 5772 5772 5772 5772 5773 5773 5774 5774 5775 5775 5775 5775 5776 5776 5777 5777 5778 5777 5777 5778 5778 5778 5778 5779 5779 5780 5781 5781 5782 5782 5782 5782 5782 5782 5783 5783 5784 5784
5763 5763 5763 5763 5763 5763 5764 5764 5765 5766 5766 5767 5767 5768 5768 5769 5770 5770 5771 5771 5772 5772 5772 5772 5772 5772 5772 5771 5771 5771 5771 5771 5772 5772 5771 5771 5770 5770 5771 5771 5771 5770 5770 5769 5769 5770 5770 5770 5770 5770 5770 5771 5771 5772 5773 5773 5773 5773 5773 5773 5774 5774 5775 5775 5775 5776 5776 5776 5776 5777 5777 5777 5778 5779 5779 5780 5780 5780 5779 5780 5781 5781 5781 5782 5782
5762 5762 5762 5762 5763 5763 5763 5763 5764 5764 5765 5765 5766 5766 5767 5767 5768 5768 5768 5769 5769 5770 5770 5770 5771 5771 5770 5770 5770 5769 5769 5770 5770 5770 5769 5769 5769 5768 5768 5769 5769 5769 5768 5768 5767 5767 5768 5768 5768 5768 5768 5769 5769 5770 5770 5770 5770 5770 5770 5771 5771 5772 5772 5773 5773 5774 5775 5774 5774 5775 5775 5776 5775 5776 5777 5777 5778 5778 5777 5777 5779 5779 5779 5780 5780
5760 5760 5760 5761 5762 5761 5762 5762 5763 5764 5764 5764 5764 5764 5764 5764 5764 5765 5766 5767 5768 5768 5769 5769 5769 5769 5768 5768 5768 5767 5767 5767 5768 5768 5768 5768 5767 5767 5767 5767 5767 5767 5767 5766 5766 5766 5766 5766 5766 5766 5767 5767 5767 5768 5768 5768 5768 5768 5768 5769 5769 5769 5770 5770 5771 5772 5772 5773 5773 5773 5773 5773 5772 5773 5774 5775 5776 5776 5774 5775 5776 5777 5777 5777 5777
5758 5758 5759 5760 5760 5759 5760 5760 5761 5762 5762 5762 5762 5761 5760 5761 5763 5764 5765 5766 5766 5767 5767 5767 5767 5766 5766 5765 5765 5764 5764 5765 5765 5766 5766 5766 5766 5766 5766 5765 5765 5765 5765 5765 5764 5764 5764 5764 5765 5765 5765 5765 5766 5766 5766 5766 5766 5766 5766 5767 5767 5767 5768 5768 5769 5769 5770 5770 5771 5771 5770 5769 5769 5770 5771 5772 5772 5772 5772 5772 5774 5774 5775 5774 5775
5755 5756 5756 5757 5758 5757 5757 5758 5759 5759 5759 5759 5759 5759 5761 5762 5764 5765 5765 5765 5764 5764 5764 5764 5764 5763 5763 5763 5763 5763 5763 5763 5763 5763 5764 5764 5765 5764 5764 5764 5764 5763 5763 5763 5762 5762 5763 5763 5763 5763 5763 5763 5764 5764 5764 5764 5764 5764 5764 5764 5765 5765 5766 5766 5767 5767 5768 5768 5769 5768 5767 5767 5767 5768 5768 5768 5769 5769 5770 5770 5771 5772 5772 5772 5773
5753 5753 5754 5755 5756 5755 5755 5755 5756 5756 5756 5757 5758 5759 5761 5763 5763 5762 5762 5762 5761 5761 5761 5760 5760 5760 5760 5760 5761 5761 5761 5761 5761 5761 5761 5762 5762 5762 5762 5762 5762 5762 5761 5761 5760 5760 5760 5761 5761 5761 5761 5761 5761 5762 5762 5762 5762 5762 5762 5762 5763 5764 5764 5765 5765 5765 5766 5766 5766 5766 5765 5765 5766 5766 5766 5766 5767 5767 5768 5768 5768 5769 5769 5769 5770
5750 5750 5751 5752 5753 5753 5752 5752 5752 5752 5753 5754 5755 5756 5758 5759 5759 5759 5758 5758 5757 5756 5756 5756 5757 5757 5758 5758 5759 5759 5760 5759 5759 5759 5759 5759 5759 5760 5760 5760 5760 5760 5760 5759 5759 5758 5758 5758 5759 5759 5759 5759 5759 5759 5759 5759 5759 5759 5759 5760 5760 5761 5762 5762 5763 5763 5763 5763 5763 5764 5763 5763 5763 5763 5763 5764 5764 5765 5765 5765 5766 5766 5766 5767 5768
5746 5746 5747 5748 5749 5749 5749 5749 5749 5749 5750 5752 5753 5754 5755 5755 5755 5754 5753 5752 5752 5752 5753 5753 5754 5756 5756 5757 5757 5757 5757 5757 5757 5757 5757 5756 5756 5757 5757 5757 5758 5758 5758 5757 5757 5757 5756 5756 5756 5756 5756 5756 5756 5757 5757 5757 5757 5757 5757 5757 5758 5759 5759 5760 5760 5760 5761 5761 5761 5761 5761 5761 5761 5761 5761 5761 5761 5762 5762 5762 5763 5763 5763 5764 5764
5742 5742 5743 5743 5744 5745 5745 5745 5746 5747 5748 5750 5751 5752 5752 5752 5752 5750 5749 5749 5750 5750 5751 5752 5753 5754 5754 5754 5755 5755 5755 5755 5755 5755 5754 5754 5754 5754 5754 5755 5755 5755 5755 5755 5755 5755 5755 5754 5754 5754 5753 5754 5754 5754 5755 5755 5755 5755 5755 5755 5755 5756 5756 5757 5757 5758 5758 5758 5758 5758 5759 5759 5759 5759 5759 5759 5759 5759 5759 5760 5760 5760 5761 5761 5761
5739 5738 5741 5741 5739 5739 5741 5742 5744 5746 5747 5748 5749 5749 5749 5749 5749 5748 5747 5748 5749 5749 5749 5750 5750 5751 5751 5751 5752 5752 5753 5753 5752 5752 5752 5752 5752 5752 5752 5753 5753 5753 5753 5753 5753 5753 5753 5752 5752 5751 5751 5751 5751 5752 5752 5753 5753 5753 5753 5753 5753 5753 5754 5754 5755 5755 5755 5755 5756 5756 5756 5756 5756 5756 5757 5757 5757 5757 5757 5757 5757 5758 5758 5758 5758
5735 5734 5737 5739 5737 5735 5737 5740 5742 5744 5745 5746 5747 5747 5746 5746 5746 5746 5746 5746 5747 5746 5747 5747 5747 5747 5748 5748 5749 5749 5750 5749 5749 5749 5749 5750 5750 5750 5750 5750 5751 5751 5751 5751 5751 5750 5750 5750 5750 5750 5749 5749 5749 5749 5750 5751 5751 5751 5751 5751 5752 5752 5752 5752 5753 5753 5753 5753 5753 5753 5753 5754 5754 5754 5754 5754 5754 5755 5755 5755 5755 5755 5756 5756 5756
5731 5732 5733 5735 5735 5734 5735 5737 5739 5741 5743 5744 5744 5744 5744 5744 5744 5745 5744 5743 5744 5745 5745 5746 5746 5746 5746 5746 5747 5747 5746 5746 5746 5746 5747 5747 5747 5748 5748 5748 5748 5748 5749 5749 5749 5748 5748 5748 5748 5748 5748 5748 5748 5748 5749 5749 5749 5750 5750 5750 5750 5751 5751 5751 5751 5751 5751 5751 5751 5751 5751 5751 5752 5752 5752 5752 5752 5752 5752 5752 5752 5753 5753 5753 5753
5730 5731 5731 5732 5732 5732 5733 5735 5737 5739 5740 5741 5742 5742 5741 5741 5742 5742 5740 5741 5742 5743 5743 5744 5744 5745 5744 5744 5744 5744 5744 5743 5743 5744 5744 5744 5745 5745 5745 5745 5745 5746 5746 5747 5747 5746 5746 5746 5747 5747 5747 5747 5747 5747 5747 5748 5748 5748 5748 5749 5749 5749 5749 5749 5749 5750 5750 5750 5749 5749 5749 5750 5750 5750 5750 5750 5750 5750 5750 5750 5750 5750 5750 5751 5751
5728 5730 5730 5729 5729 5729 5730 5732 5733 5735 5737 5738 5739 5739 5739 5739 5740 5739 5738 5739 5740 5740 5741 5741 5742 5742 5742 5742 5742 5742 5742 5741 5741 5741 5742 5742 5743 5743 5743 5742 5743 5743 5744 5744 5744 5745 5745 5745 5745 5745 5745 5745 5745 5745 5745 5746 5746 5746 5746 5747 5747 5747 5747 5747 5747 5747 5748 5748 5748 5748 5748 5748 5748 5748 5748 5748 5748 5748 5748 5748 5748 5748 5748 5748 5749
5726 5727 5727 5727 5727 5727 5728 5729 5730 5732 5734 5735 5735 5736 5737 5737 5737 5737 5736 5737 5738 5738 5739 5739 5740 5740 5740 5740 5740 5741 5740 5740 5739 5740 5740 5741 5741 5741 5740 5740 5740 5741 5741 5741 5742 5743 5743 5743 5743 5742 5742 5742 5742 5742 5743 5743 5744 5744 5744 5745 5745 5745 5745 5745 5745 5745 5745 5746 5746 5746 5746 5746 5746 5746 5746 5745 5745 5745 5746 5746 5746 5746 5746 5747 5747
5723 5724 5724 5724 5724 5725 5726 5726 5728 5729 5731 5732 5733 5733 5734 5735 5734 5734 5734 5735 5736 5736 5737 5737 5737 5737 5737 5738 5738 5739 5739 5739 5739 5738 5738 5739 5739 5739 5739 5738 5738 5738 5739 5739 5740 5741 5741 5742 5741 5741 5740 5740 5739 5740 5740 5741 5741 5742 5743 5743 5743 5743 5743 5743 5743 5743 5743 5744 5744 5744 5744 5744 5744 5743 5743 5743 5743 5743 5743 5743 5744 5744 5744 5744 5744
5721 5721 5721 5721 5722 5722 5723 5724 5726 5727 5729 5730 5730 5731 5731 5732 5732 5732 5732 5732 5733 5734 5734 5734 5734 5734 5734 5735 5736 5736 5736 5736 5736 5736 5736 5736 5737 5737 5737 5736 5735 5735 5736 5737 5737 5739 5739 5739 5739 5739 5738 5738 5738 5738 5739 5739 5740 5740 5741 5741 5741 5741 5741 5741 5741 5741 5741 5742 5742 5742 5742 5742 5742 5742 5741 5741 5741 5741 5741 5741 5742 5742 5742 5742 5743
5718 5718 5718 5719 5719 5720 5721 5722 5724 5726 5727 5727 5727 5728 5728 5728 5729 5729 5729 5730 5730 5731 5731 5732 5732 5731 5732 5732 5733 5734 5734 5733 5733 5733 5734 5734 5734 5734 5734 5734 5733 5732 5733 5734 5735 5736 5736 5736 5736 5736 5736 5736 5736 5736 5737 5738 5738 5738 5739 5739 5739 5740 5740 5740 5739 5739 5739 5740 5740 5740 5740 5740 5740 5740 5740 5739 5739 5739 5739 5739 5740 5740 5740 5741 5741
5715 5715 5716 5716 5717 5718 5719 5720 5722 5723 5724 5725 5724 5724 5724 5724 5725 5726 5726 5727 5727 5727 5728 5729 5729 5729 5729 5730 5731 5731 5731 5731 5731 5731 5731 5730 5731 5731 5731 5731 5731 5730 5731 5731 5732 5733 5733 5733 5733 5733 5733 5733 5734 5734 5735 5736 5736 5736 5736 5736 5736 5737 5737 5737 5737 5737 5737 5737 5737 5737 5737 5738 5738 5738 5738 5738 5738 5738 5738 5737 5737 5738 5738 5738 5738
5712 5713 5714 5714 5715 5716 5717 5718 5719 5720 5721 5721 5721 5721 5721 5721 5722 5722 5723 5723 5724 5724 5724 5725 5725 5726 5726 5727 5728 5728 5728 5728 5728 5728 5728 5727 5728 5728 5728 5728 5728 5728 5728 5728 5728 5729 5730 5730 5730 5730 5731 5731 5731 5732 5732 5733 5733 5733 5733 5734 5733 5733 5734 5734 5735 5735 5735 5735 5735 5735 5735 5735 5735 5735 5736 5736 5736 5736 5736 5736 5736 5736 5735 5736 5736
5710 5711 5711 5712 5712 5713 5714 5715 5715 5716 5717 5717 5718 5718 5718 5718 5718 5719 5719 5719 5720 5720 5720 5721 5721 5722 5722 5723 5724 5724 5724 5724 5725 5725 5725 5725 5725 5725 5725 5725 5726 5726 5726 5726 5726 5726 5727 5728 5728 5728 5728 5728 5729 5729 5729 5729 5730 5730 5730 5730 5730 5730 5730 5731 5732 5732 5732 5732 5732 5732 5732 5732 5732 5733 5733 5733 5733 5733 5733 5733 5733 5734 5734 5734 5734
5707 5708 5708 5709 5709 5710 5710 5711 5711 5712 5713 5713 5713 5714 5714 5715 5715 5715 5715 5715 5716 5716 5716 5716 5716 5717 5718 5719 5719 5720 5720 5720 5721 5722 5722 5722 5722 5722 5722 5722 5723 5723 5723 5724 5724 5724 5724 5725 5725 5725 5725 5725 5726 5727 5726 5726 5727 5727 5727 5727 5727 5727 5727 5727 5728 5729 5729 5729 5729 5729 5729 5729 5730 5730 5730 5730 5730 5730 5730 5730 5731 5731 5731 5731 5731
5704 5705 5705 5706 5706 5706 5707 5707 5708 5708 5708 5709 5709 5709 5710 5711 5711 5711 5711 5712 5712 5712 5712 5712 5712 5712 5713 5715 5715 5715 5716 5716 5717 5718 5718 5718 5718 5718 5718 5718 5719 5720 5720 5720 5720 5720 5721 5721 5721 5721 5721 5722 5723 5723 5723 5723 5723 5724 5724 5724 5724 5724 5723 5724 5724 5725 5725 5725 5725 5725 5725 5725 5726 5726 5726 5726 5726 5727 5727 5727 5727 5728 5728 5728 5728
5700 5701 5701 5702 5702 5703 5703 5704 5704 5704 5704 5704 5704 5704 5705 5706 5707 5707 5707 5707 5707 5707 5707 5708 5708 5708 5709 5710 5710 5711 5711 5712 5713 5713 5713 5713 5713 5714 5714 5714 5715 5716 5716 5717 5717 5717 5717 5717 5717 5717 5718 5718 5718 5719 5719 5719 5719 5720 5720 5720 5720 5720 5720 5720 5720 5721 5721 5721 5721 5721 5721 5721 5721 5722 5722 5722 5722 5723 5723 5723 5723 5723 5723 5724 5724
5696 5696 5697 5697 5698 5699 5699 5700 5700 5700 5700 5700 5700 5699 5699 5700 5702 5702 5702 5702 5703 5703 5703 5703 5703 5704 5704 5705 5705 5706 5706 5707 5708 5708 5708 5708 5709 5709 5709 5710 5711 5712 5712 5713 5713 5713 5713 5713 5713 5713 5714 5714 5714 5714 5715 5715 5715 5716 5716 5715 5715 5715 5715 5715 5716 5716 5716 5716 5716 5716 5717 5717 5717 5717 5717 5717 5717 5718 5718 5718 5719 5719 5719 5719 5719
5691 5692 5692 5693 5693 5694 5694 5694 5695 5695 5696 5696 5696 5695 5695 5695 5695 5696 5697 5697 5697 5697 5697 5698 5698 5698 5699 5700 5700 5700 5701 5702 5702 5703 5703 5703 5704 5704 5704 5705 5706 5707 5708 5708 5708 5708 5709 5709 5709 5709 5709 5710 5710 5710 5710 5711 5710 5710 5710 5710 5710 5710 5710 5710 5710 5711 5711 5711 5711 5711 5712 5712 5712 5712 5712 5712 5712 5713 5713 5713 5713 5713 5713 5713 5714
5687 5687 5688 5688 5688 5689 5689 5689 5689 5690 5691 5691 5691 5690 5690 5689 5689 5690 5691 5691 5691 5691 5691 5691 5692 5692 5692 5693 5694 5694 5694 5695 5696 5697 5697 5698 5698 5698 5699 5700 5701 5702 5703 5703 5703 5703 5704 5704 5704 5704 5704 5704 5704 5705 5706 5706 5706 5705 5705 5705 5705 5705 5705 5705 5705 5705 5706 5706 5706 5707 5707 5707 5707 5706 5707 5707 5707 5707 5707 5707 5707 5708 5708 5708 5708
5681 5682 5682 5683 5684 5684 5684 5683 5684 5684 5685 5685 5685 5684 5684 5683 5683 5683 5683 5684 5685 5685 5685 5685 5685 5685 5686 5686 5687 5688 5688 5688 5689 5690 5691 5692 5692 5692 5693 5693 5695 5696 5697 5697 5698 5698 5698 5699 5699 5699 5699 5699 5699 5699 5700 5701 5701 5701 5701 5701 5701 5701 5701 5701 5701 5701 5701 5701 5701 5701 5701 5701 5701 5701 5700 5700 5700 5700 5700 5701 5701 5701 5702 5702 5702
5675 5675 5676 5676 5677 5677 5677 5677 5677 5677 5678 5678 5678 5678 5678 5678 5677 5677 5677 5677 5678 5678 5678 5678 5678 5679 5679 5680 5681 5681 5682 5683 5683 5684 5684 5685 5686 5686 5687 5688 5689 5690 5691 5692 5692 5692 5693 5693 5694 5694 5694 5694 5694 5695 5695 5696 5696 5696 5696 5696 5696 5696 5696 5696 5696 5696 5696 5696 5696 5696 5696 5696 5695 5695 5694 5694 5694 5694 5694 5694 5694 5694 5694 5694 5695
5669 5669 5669 5669 5670 5670 5670 5670 5670 5670 5670 5670 5671 5671 5671 5671 5671 5671 5671 5671 5671 5671 5672 5672 5672 5673 5674 5674 5675 5675 5676 5677 5677 5677 5678 5679 5680 5681 5681 5682 5683 5684 5685 5686 5686 5687 5687 5688 5689 5689 5689 5690 5690 5690 5690 5690 5690 5690 5690 5691 5691 5691 5691 5691 5691 5691 5691 5691 5691 5691 5690 5690 5689 5689 5689 5688 5688 5688 5688 5688 5687 5687 5687 5687 5688
5662 5663 5662 5662 5663 5664 5662 5662 5662 5662 5661 5662 5662 5663 5664 5664 5665 5665 5665 5665 5665 5665 5666 5666 5667 5667 5668 5669 5669 5670 5671 5671 5671 5671 5672 5672 5673 5674 5675 5676 5677 5677 5678 5679 5680 5681 5681 5682 5682 5683 5683 5684 5684 5684 5684 5684 5684 5684 5684 5684 5685 5685 5685 5685 5686 5686 5686 5686 5685 5685 5684 5684 5684 5683 5683 5682 5682 5681 5681 5681 5680 5680 5680 5681 5681
5654 5655 5654 5654 5655 5656 5655 5655 5655 5654 5654 5654 5655 5656 5656 5656 5657 5658 5658 5659 5659 5659 5660 5660 5661 5662 5662 5662 5663 5664 5665 5665 5665 5666 5666 5666 5667 5668 5669 5670 5670 5671 5672 5672 5673 5673 5673 5674 5675 5675 5675 5676 5676 5676 5677 5677 5677 5677 5678 5678 5678 5679 5679 5679 5679 5679 5679 5679 5679 5679 5678 5678 5677 5677 5677 5676 5676 5675 5675 5674 5674 5674 5674 5674 5673
5646 5646 5646 5646 5647 5647 5647 5648 5648 5647 5647 5647 5648 5649 5649 5649 5650 5651 5652 5652 5653 5653 5653 5653 5654 5656 5655 5655 5656 5656 5657 5658 5659 5659 5659 5659 5659 5660 5661 5662 5663 5664 5664 5664 5665 5665 5666 5666 5667 5667 5667 5668 5668 5669 5669 5670 5670 5670 5671 5671 5672 5672 5672 5672 5672 5672 5672 5672 5672 5672 5672 5672 5671 5671 5670 5670 5669 5669 5668 5668 5667 5667 5667 5666 5666
5637 5637 5637 5637 5637 5637 5637 5638 5638 5638 5638 5639 5639 5640 5641 5641 5641 5643 5644 5644 5645 5645 5646 5646 5647 5648 5648 5648 5648 5648 5649 5650 5650 5650 5650 5651 5651 5651 5652 5654 5655 5656 5657 5657 5658 5658 5659 5659 5660 5661 5661 5661 5662 5662 5662 5663 5663 5664 5664 5665 5665 5665 5665 5665 5665 5665 5665 5665 5665 5665 5665 5665 5665 5664 5664 5663 5663 5662 5662 5661 5661 5660 5659 5659 5658
5629 5629 5629 5628 5628 5628 5628 5628 5628 5629 5629 5629 5630 5631 5632 5632 5632 5634 5635 5635 5635 5636 5637 5638 5639 5641 5641 5641 5640 5641 5641 5642 5642 5643 5643 5643 5643 5644 5645 5646 5647 5648 5649 5650 5651 5652 5653 5653 5654 5655 5655 5656 5656 5656 5656 5657 5657 5657 5658 5658 5658 5658 5658 5658 5658 5658 5658 5658 5658 5658 5658 5658 5657 5657 5657 5656 5656 5656 5655 5655 5654 5653 5652 5652 5651
5622 5621 5621 5620 5620 5620 5620 5619 5620 5620 5620 5621 5621 5622 5622 5623 5623 5624 5625 5625 5625 5626 5627 5629 5631 5632 5633 5633 5634 5634 5635 5635 5636 5636 5637 5637 5637 5638 5639 5640 5641 5642 5642 5643 5644 5645 5646 5647 5648 5648 5649 5650 5650 5651 5651 5651 5651 5652 5652 5652 5652 5652 5651 5651 5651 5651 5651 5651 5651 5650 5650 5650 5650 5650 5650 5649 5649 5649 5648 5648 5647 5646 5645 5645 5644
5615 5614 5613 5613 5613 5612 5612 5612 5611 5612 5612 5612 5613 5613 5613 5614 5615 5615 5615 5616 5616 5616 5617 5619 5621 5623 5624 5625 5626 5627 5628 5628 5629 5630 5630 5631 5631 5632 5633 5633 5634 5635 5635 5636 5637 5638 5639 5639 5640 5641 5642 5643 5644 5645 5645 5645 5645 5646 5646 5646 5645 5645 5645 5645 5644 5644 5644 5644 5644 5644 5644 5644 5643 5643 5643 5642 5642 5642 5641 5641 5640 5639 5638 5638 5637
5607 5606 5605 5605 5605 5604 5604 5603 5603 5603 5603 5603 5603 5604 5604 5605 5606 5606 5606 5607 5607 5607 5608 5610 5611 5613 5615 5617 5618 5619 5620 5621 5621 5622 5623 5624 5624 5625 5625 5626 5627 5628 5628 5629 5630 5630 5631 5631 5632 5633 5634 5635 5636 5637 5638 5639 5639 5640 5639 5639 5639 5638 5638 5638 5638 5638 5638 5637 5637 5637 5637 5637 5636 5636 5636 5635 5635 5635 5634 5634 5633 5632 5632 5631 5630
5598 5597 5596 5596 5596 5596 5595 5595 5594 5593 5593 5593 5593 5594 5595 5596 5597 5597 5597 5598 5599 5599 5600 5601 5603 5604 5606 5607 5609 5610 5612 5613 5613 5614 5615 5616 5616 5617 5618 5619 5619 5620 5621 5622 5622 5623 5623 5623 5624 5625 5626 5628 5629 5630 5631 5632 5632 5633 5633 5632 5632 5632 5632 5632 5632 5632 5632 5632 5631 5631 5631 5630 5630 5629 5629 5628 5628 5628 5628 5627 5627 5626 5625 5624 5623
5590 5589 5588 5587 5587 5587 5587 5587 5586 5585 5584 5584 5583 5584 5585 5586 5586 5586 5587 5589 5590 5590 5591 5592 5594 5595 5597 5598 5600 5601 5602 5603 5604 5606 5607 5608 5608 5609 5610 5611 5612 5612 5613 5614 5614 5614 5615 5615 5616 5617 5619 5620 5621 5623 5624 5625 5625 5625 5625 5625 5625 5626 5626 5625 5626 5626 5626 5625 5625 5625 5624 5624 5623 5623 5623 5622 5622 5622 5621 5621 5620 5619 5618 5617 5615
5581 5580 5579 5578 5578 5578 5578 5578 5577 5576 5575 5574 5574 5574 5575 5576 5576 5576 5576 5577 5579 5580 5581 5582 5584 5585 5587 5588 5590 5592 5592 5593 5594 5596 5597 5598 5599 5600 5601 5602 5603 5604 5605 5606 5606 5606 5606 5607 5609 5610 5612 5613 5614 5615 5617 5618 5618 5618 5619 5619 5619 5619 5619 5619 5619 5619 5619 5619 5619 5618 5618 5617 5617 5617 5617 5616 5616 5615 5614 5614 5613 5612 5611 5609 5608
5572 5571 5570 5569 5568 5568 5568 5568 5568 5567 5565 5564 5564 5563 5564 5565 5566 5566 5565 5565 5566 5568 5570 5572 5573 5575 5576 5578 5580 5581 5582 5584 5585 5586 5587 5588 5589 5590 5591 5592 5594 5595 5596 5597 5597 5598 5598 5599 5601 5603 5605 5606 5607 5609 5610 5610 5611 5611 5612 5613 5613 5613 5613 5613 5612 5612 5612 5612 5612 5612 5612 5611 5611 5611 5611 5610 5609 5609 5608 5607 5606 5605 5604 5603 5602
5562 5561 5560 5559 5559 5558 5558 5558 5558 5557 5555 5554 5553 5553 5553 5553 5554 5555 5554 5554 5555 5556 5558 5560 5562 5563 5565 5567 5568 5570 5571 5573 5575 5577 5578 5579 5579 5580 5582 5583 5584 5585 5586 5587 5588 5589 5590 5591 5593 5596 5598 5599 5600 5601 5602 5603 5604 5605 5605 5605 5606 5606 5606 5606 5606 5605 5605 5605 5606 5606 5606 5606 5606 5605 5604 5604 5603 5602 5601 5601 5600 5599 5598 5597 5595
5553 5552 5551 5550 5549 5549 5548 5548 5548 5547 5545 5544 5544 5543 5542 5541 5542 5542 5542 5543 5545 5546 5546 5548 5550 5552 5554 5555 5557 5559 5560 5562 5564 5566 5568 5569 5571 5572 5573 5574 5575 5576 5577 5577 5579 5580 5581 5583 5585 5588 5590 5592 5593 5594 5595 5596 5597 5598 5598 5599 5599 5600 5600 5599 5599 5599 5599 5599 5600 5600 5600 5600 5600 5599 5598 5598 5597 5596 5596 5595 5594 5593 5592 5591 5589
5544 5543 5542 5541 5540 5539 5538 5538 5537 5536 5535 5534 5534 5533 5532 5530 5530 5530 5530 5531 5533 5535 5536 5538 5539 5540 5543 5544 5546 5547 5549 5551 5553 5555 5557 5559 5561 5562 5564 5566 5567 5569 5569 5570 5571 5572 5573 5575 5578 5580 5583 5584 5586 5587 5588 5589 5590 5591 5592 5592 5593 5593 5593 5593 5593 5593 5594 5594 5594 5594 5594 5594 5594 5593 5593 5592 5591 5591 5590 5589 5588 5587 5586 5584 5583
5535 5534 5533 5531 5530 5528 5528 5527 5526 5524 5523 5523 5523 5522 5521 5519 5519 5518 5518 5520 5522 5524 5526 5528 5528 5529 5531 5533 5535 5537 5539 5540 5543 5545 5547 5550 5552 5554 5555 5557 5559 5561 5562 5563 5564 5565 5567 5569 5571 5573 5575 5577 5579 5580 5581 5583 5583 5584 5585 5586 5586 5587 5587 5588 5588 5588 5588 5589 5589 5589 5589 5588 5588 5588 5587 5587 5586 5585 5585 5584 5583 5581 5580 5579 5577